1574809491,35.02,983.26,1010.01,222,23.90,7.54,-77,1
1574809551,34.90,984.27,1011.02,222,23.92,7.51,-77,1
1574809611,34.96,984.30,1011.05,222,23.94,7.55,-76,1
1574809672,34.76,984.21,1010.96,222,23.96,7.48,-77,1
1574809732,34.45,984.24,1010.98,222,23.98,7.37,-77,1
1574809792,34.60,984.19,1010.94,222,24.00,7.45,-78,1
1574809852,34.59,984.21,1010.95,222,24.02,7.46,-75,1
1574809912,34.42,984.22,1010.96,222,24.04,7.41,-76,1
1574809972,34.18,984.19,1010.94,222,24.07,7.33,-75,1
1574810032,34.47,984.25,1011.00,222,24.09,7.47,-76,1
1574810092,34.46,984.15,1010.90,222,24.11,7.48,-76,1
1574810152,34.38,984.15,1010.89,222,24.13,7.47,-76,1
1574810212,34.10,984.12,1010.87,222,24.15,7.37,-77,1
1574810272,33.71,984.10,1010.84,222,24.18,7.23,-76,1
1574810332,34.19,983.88,1010.63,222,24.20,7.45,-78,1
1574810393,34.23,984.11,1010.86,222,24.23,7.50,-78,1
1574810453,33.99,984.13,1010.88,222,24.25,7.41,-78,1
1574810513,33.81,984.14,1010.89,222,24.27,7.35,-79,1
1574810573,33.60,984.15,1010.90,222,24.28,7.27,-78,1
1574810633,33.44,984.13,1010.87,222,24.29,7.21,-78,1
1574810693,33.29,984.14,1010.89,222,24.31,7.16,-77,1
1574810753,33.25,984.17,1010.92,222,24.32,7.15,-78,1
1574810813,33.17,984.19,1010.94,222,24.33,7.12,-77,1
1574810873,33.13,984.18,1010.93,222,24.33,7.11,-77,1
1574810933,33.07,984.16,1010.91,222,24.34,7.08,-79,1
1574810994,33.03,984.15,1010.90,222,24.35,7.08,-77,1
1574811054,32.94,984.13,1010.88,222,24.35,7.04,-77,1
1574811114,32.88,984.11,1010.86,222,24.35,7.01,-79,1
1574811174,32.79,984.09,1010.83,222,24.36,6.98,-78,1
1574811234,32.94,984.05,1010.79,222,24.36,7.05,-78,1
1574811294,32.77,983.99,1010.73,222,24.37,6.98,-79,1
1574811354,32.64,983.94,1010.69,222,24.37,6.92,-78,1
1574811414,32.72,983.94,1010.69,222,24.37,6.96,-78,1
1574811474,32.67,983.92,1010.67,222,24.37,6.94,-78,1
1574811534,32.65,983.91,1010.66,222,24.37,6.93,-77,1
1574811594,32.62,983.90,1010.65,222,24.38,6.92,-79,1
1574811655,32.58,983.90,1010.64,222,24.38,6.90,-77,1
1574811715,32.61,983.87,1010.62,222,24.39,6.92,-77,1
1574811775,32.57,983.87,1010.61,222,24.39,6.91,-76,1
1574811835,32.56,983.86,1010.60,222,24.39,6.90,-78,1
1574811895,32.55,983.82,1010.56,222,24.39,6.90,-78,1
1574811955,32.47,983.83,1010.58,222,24.39,6.86,-77,1
1574812015,32.46,983.81,1010.55,222,24.40,6.87,-77,1
1574812075,32.54,983.81,1010.56,222,24.40,6.90,-78,1
1574812135,32.41,983.73,1010.47,222,24.39,6.83,-78,1
1574812195,32.46,983.84,1010.58,222,24.10,6.60,-78,1
1574812256,32.41,983.75,1010.50,222,24.33,6.78,-77,1
1574812316,32.40,983.76,1010.51,222,24.40,6.84,-77,1
1574812376,32.33,983.74,1010.49,222,24.38,6.79,-78,1
1574812436,32.27,983.76,1010.51,222,24.40,6.78,-78,1
1574812496,32.27,983.76,1010.51,222,24.40,6.78,-77,1
1574812556,32.31,983.76,1010.50,222,24.37,6.77,-78,1
1574812616,32.27,983.76,1010.50,222,24.41,6.79,-78,1
1574812676,32.23,983.78,1010.53,222,24.41,6.77,-78,1
1574812736,32.25,983.79,1010.53,222,24.41,6.78,-77,1
1574812797,32.31,983.39,1010.14,222,24.41,6.81,-78,1
1574812857,32.12,983.71,1010.46,222,24.41,6.72,-79,1
1574812917,31.90,983.72,1010.47,222,24.41,6.62,-77,1
1574812977,32.11,983.71,1010.46,222,24.41,6.72,-78,1
1574813037,32.18,983.71,1010.45,222,24.41,6.75,-77,1
1574813097,32.11,983.71,1010.45,222,24.41,6.72,-78,1
1574813157,32.13,983.72,1010.47,222,24.40,6.72,-78,1
1574813217,32.03,983.75,1010.49,222,24.40,6.67,-79,1
1574813277,32.05,983.77,1010.51,222,24.40,6.68,-78,1
1574813337,32.02,983.78,1010.53,222,24.41,6.68,-78,1
1574813398,32.10,983.78,1010.52,222,24.40,6.70,-78,1
1574813458,32.01,983.74,1010.49,222,24.41,6.67,-77,1
1574813518,32.19,983.76,1010.51,222,24.40,6.75,-78,1
1574813578,31.97,983.74,1010.49,222,24.41,6.66,-77,1
1574813638,31.94,983.76,1010.50,222,24.41,6.64,-78,1
1574813698,32.00,983.74,1010.49,222,24.41,6.67,-78,1
1574813758,31.88,983.75,1010.49,222,24.41,6.61,-77,1
1574813818,32.23,983.76,1010.50,222,24.41,6.77,-76,1
1574813879,31.93,983.77,1010.52,222,24.41,6.63,-78,1
1574813939,31.86,983.77,1010.52,222,24.41,6.60,-77,1
1574813999,31.85,983.76,1010.51,222,24.41,6.60,-78,1
1574814059,31.82,983.78,1010.52,222,24.41,6.59,-78,1
1574814119,32.00,983.78,1010.53,222,24.41,6.67,-77,1
1574814179,31.91,983.76,1010.51,222,24.42,6.63,-78,1
1574814239,31.93,983.77,1010.51,222,24.42,6.64,-77,1
1574814299,31.94,983.77,1010.52,222,24.43,6.66,-76,1
1574814359,31.98,983.74,1010.49,222,24.43,6.67,-78,1
1574814419,32.02,983.78,1010.53,222,24.44,6.70,-76,1
1574814479,31.95,983.75,1010.49,222,24.44,6.67,-76,1
1574814540,32.06,983.75,1010.50,222,24.45,6.73,-78,1
1574814600,31.88,983.72,1010.47,222,24.46,6.66,-78,1
1574814660,31.88,983.73,1010.48,222,24.46,6.66,-78,1
1574814720,31.90,983.74,1010.49,222,24.47,6.67,-78,1
1574814780,31.97,983.71,1010.46,222,24.47,6.70,-78,1
1574814840,31.94,983.34,1010.09,222,24.48,6.70,-78,1
1574814900,31.97,983.70,1010.45,222,24.47,6.70,-78,1
1574814960,31.93,983.71,1010.45,222,24.46,6.68,-76,1
1574815020,31.89,983.68,1010.43,222,24.43,6.63,-79,1
1574815080,31.89,983.67,1010.41,222,24.50,6.69,-78,1
1574815140,31.71,983.66,1010.40,222,24.50,6.62,-78,1
1574815200,31.84,983.65,1010.39,222,24.52,6.69,-79,1
1574815261,31.90,983.66,1010.40,222,24.52,6.72,-78,1
1574815321,31.88,983.64,1010.39,222,24.34,6.55,-78,1
1574815381,31.85,983.62,1010.37,222,24.38,6.58,-77,1
1574815441,31.86,983.62,1010.37,222,24.53,6.71,-77,1
1574815501,31.73,983.63,1010.37,222,24.55,6.67,-77,1
1574815561,31.78,983.61,1010.36,222,24.56,6.70,-80,1
1574815621,31.78,983.58,1010.33,222,24.55,6.69,-77,1
1574815681,31.76,983.56,1010.30,222,24.56,6.69,-78,1
1574815741,31.68,983.54,1010.28,222,24.55,6.65,-78,1
1574815801,31.70,983.52,1010.27,222,24.56,6.66,-78,1
1574815861,31.66,983.50,1010.24,222,24.57,6.65,-77,1
1574815921,31.57,983.52,1010.27,222,24.57,6.61,-77,1
1574815981,31.62,983.49,1010.23,222,24.55,6.61,-78,1
1574816041,31.60,983.48,1010.22,222,24.53,6.59,-78,1
1574816102,31.57,983.48,1010.23,222,24.58,6.62,-78,1
1574816162,31.62,983.50,1010.24,222,24.58,6.64,-77,1
1574816222,31.56,983.47,1010.21,222,24.58,6.61,-77,1
1574816282,31.60,983.46,1010.21,222,24.59,6.64,-78,1
1574816342,31.49,983.44,1010.19,222,24.58,6.58,-77,1
1574816402,31.49,983.43,1010.18,222,24.58,6.58,-78,1
1574816462,31.40,983.42,1010.17,222,24.58,6.54,-79,1
1574816522,31.45,983.37,1010.12,222,24.59,6.57,-78,1
1574816582,31.36,982.81,1009.55,222,24.59,6.53,-78,1
1574816642,31.37,983.41,1010.16,222,24.58,6.53,-77,1
1574816702,31.32,983.38,1010.12,222,24.58,6.50,-79,1
1574816762,31.38,983.38,1010.13,222,24.56,6.52,-77,1
1574816822,31.35,983.40,1010.14,222,24.45,6.40,-77,1
1574816882,31.35,983.07,1009.81,222,24.57,6.51,-77,1
1574816943,31.32,983.33,1010.08,222,24.58,6.51,-77,1
1574817003,31.31,983.34,1010.09,222,24.58,6.50,-77,1
1574817063,31.37,983.34,1010.09,222,24.57,6.52,-79,1
1574817123,31.35,983.38,1010.13,222,24.57,6.51,-77,1
1574817183,31.35,983.35,1010.10,222,24.57,6.51,-78,1
1574817243,31.29,983.34,1010.09,222,24.57,6.48,-77,1
1574817303,31.53,983.31,1010.06,222,24.57,6.59,-78,1
1574817363,31.31,983.31,1010.06,222,24.56,6.48,-79,1
1574817423,31.39,983.26,1010.01,222,24.56,6.52,-77,1
1574817483,31.27,983.27,1010.01,222,24.56,6.46,-80,1
1574817544,31.21,983.36,1010.10,222,24.55,6.43,-78,1
1574817604,31.34,983.23,1009.98,222,24.55,6.48,-76,1
1574817664,31.22,983.25,1010.00,222,24.55,6.43,-76,1
1574817724,31.23,983.23,1009.97,222,24.55,6.44,-77,1
1574817784,31.25,983.22,1009.97,222,24.54,6.44,-78,1
1574817844,31.21,983.19,1009.94,222,24.54,6.42,-76,1
1574817904,31.16,983.15,1009.90,222,24.53,6.39,-78,1
1574817964,31.22,983.12,1009.87,222,24.53,6.41,-78,1
1574818024,31.23,983.12,1009.86,222,24.53,6.42,-77,1
1574818084,31.14,983.10,1009.85,222,24.52,6.37,-78,1
1574818144,31.18,983.10,1009.85,222,24.52,6.39,-78,1
1574818205,31.23,983.10,1009.85,222,24.52,6.41,-79,1
1574818265,31.23,983.07,1009.82,222,24.52,6.41,-78,1
1574818325,31.17,983.02,1009.77,222,24.51,6.37,-76,1
1574818385,31.13,982.92,1009.67,222,24.50,6.35,-78,1
1574818445,31.23,983.04,1009.79,222,24.49,6.38,-78,1
1574818505,31.12,983.03,1009.78,222,24.49,6.33,-78,1
1574818565,31.11,983.03,1009.78,222,24.49,6.33,-77,1
1574818625,31.19,983.03,1009.78,222,24.49,6.37,-77,1
1574818685,31.17,983.03,1009.78,222,24.49,6.36,-79,1
1574818745,31.15,983.04,1009.79,222,24.46,6.32,-78,1
1574818805,31.18,983.05,1009.79,222,24.48,6.35,-75,1
1574818865,31.15,983.03,1009.77,222,24.49,6.34,-78,1
1574818926,31.13,983.01,1009.76,222,24.40,6.26,-78,1
1574818986,31.20,983.02,1009.76,222,24.48,6.36,-77,1
1574819046,31.24,983.05,1009.79,222,24.47,6.37,-77,1
1574819106,31.24,983.03,1009.78,222,24.48,6.38,-78,1
1574819166,31.27,983.05,1009.80,222,24.05,6.02,-77,1
1574819226,31.25,983.02,1009.77,222,24.44,6.35,-78,1
1574819286,31.27,983.02,1009.77,222,24.46,6.38,-77,1
1574819346,31.34,983.00,1009.74,222,24.42,6.37,-77,1
1574819406,31.33,983.00,1009.75,222,24.49,6.43,-78,1
1574819466,31.47,983.01,1009.76,222,24.49,6.49,-78,1
1574819526,31.26,982.74,1009.48,222,24.50,6.41,-78,1
1574819587,31.36,982.98,1009.73,222,24.50,6.45,-78,1
1574819647,31.45,982.97,1009.72,222,24.50,6.49,-77,1
1574819707,31.47,982.92,1009.67,222,24.51,6.51,-78,1
1574819767,31.44,982.90,1009.65,222,24.51,6.50,-76,1
1574819827,31.33,982.93,1009.68,222,24.52,6.46,-78,1
1574819887,31.41,982.86,1009.61,222,24.52,6.49,-78,1
1574819947,31.35,982.86,1009.61,222,24.48,6.43,-78,1
1574820007,31.36,982.91,1009.66,222,24.53,6.48,-77,1
1574820067,31.39,982.90,1009.65,222,24.54,6.50,-77,1
1574820127,31.37,982.88,1009.63,222,24.55,6.50,-79,1
1574820187,31.30,982.66,1009.41,222,24.55,6.47,-78,1
1574820247,31.28,982.85,1009.60,222,24.55,6.46,-78,1
1574820307,31.29,982.85,1009.59,222,24.56,6.47,-78,1
1574820368,31.22,982.86,1009.61,222,24.56,6.44,-78,1
1574820428,31.25,982.85,1009.60,222,24.57,6.46,-78,1
1574820488,31.26,982.85,1009.60,222,24.57,6.47,-77,1
1574820548,31.25,982.87,1009.61,222,24.57,6.46,-77,1
1574820608,31.22,982.82,1009.57,222,24.58,6.46,-78,1
1574820668,31.19,982.81,1009.55,222,24.59,6.45,-78,1
1574820728,31.25,982.80,1009.54,222,24.59,6.48,-78,1
1574820788,31.26,982.82,1009.57,222,24.59,6.48,-77,1
1574820848,31.20,982.80,1009.54,222,24.58,6.45,-77,1
1574820908,31.23,982.81,1009.56,222,24.59,6.47,-79,1
1574820969,31.15,982.84,1009.59,222,24.60,6.44,-77,1
1574821029,31.13,982.90,1009.65,222,24.60,6.43,-78,1
1574821089,31.17,982.92,1009.67,222,24.60,6.45,-77,1
1574821149,31.13,982.90,1009.65,222,24.59,6.42,-78,1
1574821209,31.17,982.88,1009.63,222,24.60,6.45,-78,1
1574821269,31.20,982.89,1009.63,222,24.60,6.47,-78,1
1574821329,31.13,982.91,1009.66,222,24.60,6.43,-77,1
1574821389,31.08,982.89,1009.64,222,24.60,6.41,-78,1
1574821449,30.98,982.87,1009.62,222,24.60,6.36,-76,1
1574821509,31.04,982.85,1009.60,222,24.60,6.39,-77,1
1574821569,31.06,982.87,1009.62,222,24.59,6.39,-78,1
1574821630,31.06,982.85,1009.60,222,24.60,6.40,-79,1
1574821690,31.07,982.86,1009.61,222,24.59,6.40,-77,1
1574821750,31.13,982.87,1009.61,222,24.59,6.42,-77,1
1574821810,30.93,982.84,1009.58,222,24.59,6.33,-76,1
1574821870,31.04,982.84,1009.58,222,24.58,6.37,-77,1
1574821930,31.04,982.81,1009.56,222,24.58,6.37,-78,1
1574821990,31.06,982.84,1009.58,222,24.58,6.38,-78,1
1574822050,31.05,982.83,1009.58,222,24.58,6.38,-78,1
1574822110,31.07,982.84,1009.59,222,24.57,6.38,-77,1
1574822170,31.25,982.84,1009.59,222,24.57,6.46,-77,1
1574822230,31.05,982.86,1009.61,222,24.57,6.37,-78,1
1574822291,31.19,982.85,1009.60,222,24.57,6.43,-78,1
1574822351,31.11,982.79,1009.54,222,24.56,6.39,-78,1
1574822411,31.06,982.77,1009.51,222,24.56,6.36,-76,1
1574822471,31.07,982.74,1009.49,222,24.56,6.37,-78,1
1574822531,31.05,982.72,1009.46,222,24.55,6.35,-78,1
1574822591,31.09,982.68,1009.42,222,24.55,6.37,-78,1
1574822651,31.07,982.70,1009.45,222,24.55,6.36,-79,1
1574822711,31.01,982.67,1009.42,222,24.54,6.33,-76,1
1574822771,30.83,982.63,1009.38,222,24.54,6.24,-78,1
1574822831,31.02,982.62,1009.37,222,24.55,6.34,-77,1
1574822891,31.02,982.60,1009.35,222,24.54,6.33,-79,1
1574822951,31.08,982.58,1009.33,222,24.54,6.36,-78,1
1574823012,30.94,982.58,1009.32,222,24.53,6.28,-78,1
1574823072,31.00,982.57,1009.32,222,24.53,6.31,-77,1
1574823132,31.00,982.56,1009.30,222,24.52,6.30,-79,1
1574823192,30.98,982.53,1009.28,222,24.52,6.29,-78,1
1574823252,30.96,982.54,1009.29,222,24.52,6.29,-77,1
1574823312,30.98,982.55,1009.29,222,24.51,6.28,-79,1
1574823372,30.92,982.53,1009.28,222,24.51,6.25,-78,1
1574823432,30.96,982.52,1009.27,222,24.51,6.28,-79,1
1574823492,30.80,982.51,1009.25,222,24.50,6.19,-79,1
1574823552,31.27,982.42,1009.17,222,24.49,6.40,-78,1
1574823612,31.22,982.49,1009.24,222,24.49,6.38,-78,1
1574823673,30.99,982.47,1009.21,222,24.49,6.27,-78,1
1574823733,30.95,982.47,1009.22,222,24.49,6.25,-79,1
1574823793,30.96,982.51,1009.26,222,24.48,6.25,-77,1
1574823853,30.95,982.48,1009.22,222,24.48,6.24,-78,1
1574823913,30.96,982.53,1009.27,222,24.48,6.25,-78,1
1574823973,30.97,982.53,1009.28,222,24.48,6.26,-79,1
1574824033,31.00,982.52,1009.27,222,24.48,6.27,-79,1
1574824093,30.98,982.53,1009.27,222,24.48,6.26,-78,1
1574824153,31.02,982.55,1009.29,222,24.39,6.20,-77,1
1574824213,31.04,982.56,1009.31,222,24.48,6.29,-78,1
1574824273,31.08,982.57,1009.32,222,24.49,6.31,-77,1
1574824333,31.05,982.51,1009.25,222,24.49,6.30,-76,1
1574824394,31.09,982.53,1009.28,222,24.48,6.31,-78,1
1574824454,31.15,982.51,1009.26,222,24.49,6.34,-77,1
1574824514,31.27,982.50,1009.25,222,24.49,6.40,-78,1
1574824574,31.14,982.49,1009.24,222,24.50,6.35,-78,1
1574824634,31.08,982.47,1009.21,222,24.50,6.32,-78,1
1574824694,31.16,982.46,1009.21,222,24.51,6.37,-78,1
1574824754,31.16,982.43,1009.18,222,24.51,6.37,-77,1
1574824814,31.18,982.46,1009.20,222,24.51,6.38,-78,1
1574824874,31.13,982.42,1009.16,222,24.51,6.35,-77,1
1574824934,31.06,982.43,1009.18,222,24.52,6.33,-79,1
1574824994,31.20,982.42,1009.16,222,24.52,6.39,-78,1
1574825055,31.11,982.40,1009.14,222,24.52,6.36,-78,1
1574825115,31.12,982.40,1009.14,222,24.53,6.36,-78,1
1574825175,31.12,982.38,1009.12,222,24.53,6.36,-78,1
1574825235,31.10,982.37,1009.11,222,24.54,6.37,-75,1
1574825295,31.31,982.34,1009.09,222,24.56,6.48,-75,1
1574825355,31.07,982.34,1009.08,222,24.55,6.36,-78,1
1574825415,31.06,982.34,1009.09,222,24.56,6.36,-78,1
1574825475,31.00,982.32,1009.07,222,24.56,6.34,-78,1
1574825535,31.07,982.31,1009.06,222,24.56,6.37,-78,1
1574825595,30.88,982.29,1009.04,222,24.31,6.06,-78,1
1574825655,30.93,982.27,1009.01,222,24.42,6.18,-78,1
1574825716,30.93,982.28,1009.02,222,24.57,6.31,-77,1
1574825776,30.89,982.28,1009.02,222,24.57,6.29,-77,1
1574825836,30.96,982.27,1009.01,222,24.58,6.33,-79,1
1574825896,30.83,982.23,1008.97,222,24.32,6.05,-77,1
1574825956,30.99,982.24,1008.99,222,24.53,6.31,-78,1
1574826016,30.84,982.23,1008.98,222,24.56,6.26,-79,1
1574826076,30.82,982.22,1008.97,222,24.58,6.27,-78,1
1574826136,30.84,982.22,1008.96,222,24.58,6.28,-78,1
1574826196,30.79,982.21,1008.96,222,24.59,6.27,-78,1
1574826256,30.82,982.15,1008.90,222,24.58,6.27,-78,1
1574826317,30.77,982.13,1008.87,222,24.58,6.25,-79,1
1574826377,30.84,982.09,1008.84,222,24.58,6.28,-79,1
1574826437,30.84,982.06,1008.81,222,24.58,6.28,-78,1
1574826497,30.80,981.89,1008.64,222,24.58,6.26,-79,1
1574826557,30.79,982.00,1008.75,222,24.58,6.26,-76,1
1574826617,30.53,981.93,1008.68,222,24.58,6.13,-78,1
1574826677,30.86,981.99,1008.74,222,24.58,6.29,-77,1
1574826737,30.73,981.97,1008.71,222,24.57,6.22,-77,1
1574826797,30.79,981.98,1008.73,222,24.58,6.26,-78,1
1574826857,30.76,981.97,1008.72,222,24.55,6.22,-77,1
1574826918,30.81,981.99,1008.73,222,24.50,6.19,-78,1
1574826978,30.80,981.96,1008.71,222,24.56,6.25,-78,1
1574827038,30.49,981.96,1008.71,222,24.56,6.10,-78,1
1574827098,30.74,981.93,1008.68,222,24.56,6.21,-77,1
1574827158,30.33,981.96,1008.71,222,24.55,6.01,-78,1
1574827218,30.33,981.95,1008.69,222,24.56,6.02,-77,1
1574827278,30.67,981.94,1008.68,222,24.55,6.17,-78,1
1574827338,30.72,981.94,1008.68,222,24.55,6.20,-78,1
1574827398,30.65,981.97,1008.72,222,24.55,6.17,-78,1
1574827458,30.70,982.00,1008.75,222,24.54,6.18,-78,1
1574827518,30.72,981.98,1008.73,222,24.54,6.19,-78,1
1574827579,30.85,981.99,1008.74,222,24.53,6.24,-78,1
1574827639,30.73,981.99,1008.74,222,24.53,6.19,-79,1
1574827699,30.62,981.97,1008.72,222,24.53,6.13,-78,1
1574827759,30.68,981.95,1008.70,222,24.53,6.16,-78,1
1574827819,30.69,981.93,1008.68,222,24.52,6.15,-78,1
1574827879,30.66,981.94,1008.69,222,24.52,6.14,-78,1
1574827939,30.59,981.92,1008.66,222,24.51,6.10,-77,1
1574827999,30.70,981.91,1008.66,222,24.51,6.15,-79,1
1574828059,30.62,981.89,1008.64,222,24.50,6.10,-78,1
1574828120,30.70,981.89,1008.64,222,24.51,6.15,-76,1
1574828180,30.67,981.92,1008.67,222,24.50,6.13,-76,1
1574828240,30.60,981.90,1008.65,222,24.50,6.10,-76,1
1574828300,30.60,981.89,1008.64,222,24.49,6.09,-77,1
1574828360,30.65,981.84,1008.58,222,24.49,6.11,-79,1
1574828420,30.58,981.87,1008.61,222,24.49,6.08,-78,1
1574828480,30.63,981.78,1008.53,222,24.48,6.09,-79,1
1574828540,30.56,981.78,1008.53,222,24.48,6.06,-79,1
1574828600,30.64,981.77,1008.52,222,24.48,6.10,-79,1
1574828660,30.67,981.80,1008.55,222,24.46,6.10,-78,1
1574828720,30.71,981.81,1008.56,222,24.43,6.09,-79,1
1574828781,30.65,981.83,1008.58,222,24.47,6.09,-77,1
1574828841,30.61,981.83,1008.57,222,24.46,6.07,-79,1
1574828901,30.72,981.81,1008.56,222,24.46,6.12,-77,1
1574828961,30.69,981.80,1008.55,222,24.46,6.11,-78,1
1574829021,30.78,981.79,1008.54,222,24.46,6.14,-78,1
1574829081,30.74,981.76,1008.51,222,24.46,6.13,-77,1
1574829141,30.72,981.78,1008.53,222,24.46,6.12,-80,1
1574829201,30.84,981.81,1008.56,222,24.46,6.18,-78,1
1574829261,30.88,981.81,1008.56,222,24.47,6.20,-79,1
1574829321,30.86,981.81,1008.55,222,24.47,6.19,-78,1
1574829382,30.89,981.78,1008.52,222,24.47,6.21,-76,1
1574829442,30.93,981.77,1008.51,222,24.48,6.23,-78,1
1574829502,30.94,981.75,1008.50,222,24.48,6.24,-77,1
1574829562,30.90,981.71,1008.46,222,24.48,6.22,-78,1
1574829622,30.88,981.72,1008.47,222,24.49,6.22,-79,1
1574829682,30.86,981.73,1008.48,222,24.49,6.21,-78,1
1574829742,30.88,981.77,1008.51,222,24.50,6.23,-78,1
1574829802,30.89,981.78,1008.53,222,24.50,6.24,-77,1
1574829862,30.89,981.79,1008.53,222,24.51,6.24,-78,1
1574829922,31.14,981.82,1008.56,222,24.51,6.36,-78,1
1574829982,30.89,981.81,1008.56,222,24.51,6.24,-78,1
1574830042,30.89,981.79,1008.53,222,24.52,6.25,-78,1
1574830103,30.86,981.78,1008.53,222,24.52,6.24,-77,1
1574830163,30.87,981.77,1008.51,222,24.53,6.25,-77,1
1574830223,30.89,981.78,1008.53,222,24.53,6.26,-78,1
1574830283,30.85,981.79,1008.54,222,24.53,6.24,-78,1
1574830343,30.85,981.79,1008.53,222,24.54,6.25,-79,1
1574830403,30.79,981.82,1008.57,222,24.55,6.23,-78,1
1574830463,30.84,981.80,1008.54,222,24.55,6.25,-79,1
1574830523,30.80,981.79,1008.54,222,24.56,6.25,-78,1
1574830583,30.80,981.78,1008.52,222,24.56,6.25,-77,1
1574830643,30.74,981.78,1008.53,222,24.56,6.21,-78,1
1574830703,30.69,981.77,1008.52,222,24.57,6.20,-77,1
1574830763,30.72,981.78,1008.53,222,24.57,6.22,-79,1
1574830823,30.76,981.79,1008.54,222,24.57,6.23,-79,1
1574830884,30.71,981.81,1008.56,222,24.58,6.22,-78,1
1574830944,30.68,981.80,1008.54,222,24.57,6.19,-78,1
1574831004,30.70,981.77,1008.52,222,24.57,6.21,-77,1
1574831064,30.70,981.75,1008.49,222,24.58,6.21,-78,1
1574831124,30.75,981.76,1008.50,222,24.57,6.23,-77,1
1574831184,30.66,981.77,1008.52,222,24.57,6.18,-77,1
1574831244,30.59,981.73,1008.48,222,24.57,6.15,-77,1
1574831304,30.69,981.74,1008.48,222,24.57,6.20,-78,1
1574831364,30.61,981.72,1008.47,222,24.58,6.17,-78,1
1574831424,30.64,981.72,1008.47,222,24.57,6.18,-78,1
1574831484,30.61,981.74,1008.48,222,24.57,6.16,-78,1
1574831545,30.60,981.71,1008.45,222,24.57,6.16,-78,1
1574831605,30.86,981.69,1008.44,222,24.57,6.28,-78,1
1574831665,30.63,981.66,1008.41,222,24.56,6.16,-78,1
1574831725,30.62,981.67,1008.41,222,24.56,6.16,-78,1
1574831785,30.60,981.63,1008.38,222,24.56,6.15,-79,1
1574831845,30.49,981.66,1008.40,222,24.56,6.10,-79,1
1574831905,30.60,981.69,1008.43,222,24.56,6.15,-78,1
1574831965,30.54,981.70,1008.45,222,24.56,6.12,-79,1
1574832025,30.57,981.69,1008.43,222,24.56,6.14,-77,1
1574832085,30.45,981.68,1008.43,222,24.55,6.07,-78,1
1574832145,30.52,981.69,1008.44,222,24.53,6.08,-78,1
1574832206,30.56,981.70,1008.45,222,24.54,6.11,-78,1
1574832266,30.61,981.68,1008.42,222,24.55,6.14,-77,1
1574832326,30.55,981.71,1008.45,222,24.55,6.12,-79,1
1574832386,30.53,981.62,1008.37,222,24.54,6.10,-78,1
1574832446,30.51,981.62,1008.36,222,24.47,6.03,-79,1
1574832506,30.59,981.59,1008.34,222,24.53,6.12,-78,1
1574832566,30.59,981.56,1008.31,222,24.53,6.12,-77,1
1574832626,30.55,981.54,1008.29,222,24.53,6.10,-78,1
1574832686,30.55,981.53,1008.28,222,24.52,6.09,-78,1
1574832746,30.56,981.53,1008.28,222,24.52,6.09,-77,1
1574832807,30.62,981.48,1008.23,222,24.52,6.12,-77,1
1574832867,30.51,981.49,1008.23,222,24.52,6.07,-78,1
1574832927,30.56,981.46,1008.21,222,24.51,6.09,-79,1
1574832987,30.52,981.23,1007.97,222,24.51,6.07,-78,1
1574833047,30.52,981.49,1008.24,222,24.50,6.06,-78,1
1574833107,30.50,981.47,1008.21,222,24.50,6.05,-78,1
1574833167,30.57,981.47,1008.22,222,24.50,6.08,-77,1
1574833227,30.48,981.49,1008.24,222,24.49,6.03,-77,1
1574833287,30.56,981.41,1008.16,222,24.49,6.07,-76,1
1574833347,30.44,981.40,1008.14,222,24.48,6.00,-79,1
1574833407,30.53,981.40,1008.14,222,24.48,6.05,-78,1
1574833468,30.46,981.33,1008.08,222,24.48,6.01,-78,1
1574833528,30.45,981.38,1008.13,222,24.48,6.01,-78,1
1574833588,30.49,981.41,1008.16,222,24.47,6.02,-77,1
1574833648,30.44,981.37,1008.12,222,24.47,6.00,-78,1
1574833708,30.49,981.38,1008.13,222,24.47,6.02,-79,1
1574833768,30.79,981.36,1008.10,222,24.47,6.16,-78,1
1574833828,30.53,981.34,1008.09,222,24.47,6.04,-76,1
1574833888,30.56,981.30,1008.05,222,24.47,6.05,-78,1
1574833948,30.49,981.33,1008.08,222,24.47,6.02,-78,1
1574834008,30.60,981.36,1008.11,222,24.47,6.07,-78,1
1574834069,30.58,981.40,1008.15,222,24.48,6.07,-78,1
1574834129,30.64,981.43,1008.17,222,24.48,6.10,-77,1
1574834189,30.66,981.43,1008.18,222,24.48,6.11,-78,1
1574834249,30.66,981.46,1008.21,222,24.46,6.09,-76,1
1574834309,30.66,981.45,1008.19,222,24.48,6.11,-78,1
1574834369,30.66,981.42,1008.17,222,24.49,6.12,-78,1
1574834429,30.66,981.39,1008.13,222,24.49,6.12,-78,1
1574834489,30.66,981.41,1008.16,222,24.50,6.13,-78,1
1574834549,30.66,981.37,1008.12,222,24.50,6.13,-77,1
1574834609,30.72,981.36,1008.11,222,24.50,6.15,-78,1
1574834670,30.72,981.38,1008.13,222,24.50,6.15,-79,1
1574834730,30.59,981.37,1008.11,222,24.51,6.10,-79,1
1574834790,30.70,981.32,1008.07,222,24.51,6.15,-77,1
1574834850,30.65,981.30,1008.05,222,24.52,6.14,-78,1
1574834910,30.68,981.28,1008.02,222,24.46,6.10,-78,1
1574834970,30.66,981.21,1007.96,222,24.38,6.02,-78,1
1574835030,30.69,981.23,1007.97,222,24.53,6.16,-79,1
1574835090,30.62,981.24,1007.98,222,24.53,6.13,-77,1
1574835150,30.61,981.23,1007.98,222,24.54,6.13,-77,1
1574835210,30.64,981.22,1007.96,222,24.54,6.15,-78,1
1574835271,30.56,981.26,1008.01,222,24.55,6.12,-79,1
1574835331,30.57,981.27,1008.02,222,24.55,6.13,-79,1
1574835391,30.52,981.26,1008.01,222,24.56,6.11,-79,1
1574835451,30.44,981.24,1007.99,222,24.56,6.07,-76,1
1574835511,30.25,981.28,1008.03,222,24.56,5.98,-78,1
1574835571,30.22,981.26,1008.01,222,24.56,5.97,-78,1
1574835631,30.06,981.28,1008.03,222,24.56,5.89,-79,1
1574835691,30.07,981.29,1008.04,222,24.56,5.89,-77,1
1574835751,29.95,981.26,1008.01,222,24.57,5.85,-77,1
1574835811,29.70,981.30,1008.05,222,24.57,5.72,-77,1
1574835871,29.64,981.29,1008.04,222,24.57,5.70,-78,1
1574835931,29.57,981.25,1008.00,222,24.57,5.66,-78,1
1574835992,29.65,981.25,1008.00,222,24.57,5.70,-78,1
1574836052,29.79,981.24,1007.98,222,24.56,5.76,-78,1
1574836112,29.44,981.24,1007.98,222,24.57,5.60,-77,1
1574836172,29.39,981.24,1007.99,222,24.56,5.57,-77,1
1574836232,29.04,981.24,1007.99,222,24.56,5.39,-77,1
1574836292,28.60,981.22,1007.97,222,24.55,5.16,-80,1
1574836352,28.90,981.22,1007.97,222,24.55,5.31,-78,1
1574836412,28.82,981.22,1007.96,222,24.54,5.26,-78,1
1574836472,28.98,981.22,1007.97,222,24.54,5.34,-78,1
1574836532,29.07,981.23,1007.97,222,24.53,5.38,-74,1
1574836592,29.25,981.20,1007.94,222,24.53,5.47,-74,1